星链-6258 (STARLINK-6258 )

导读

STARLINK-6258是美国太空探索技术公司星链互联网卫星项目的一员,于2023年5月4日发射入轨,属于星链星座扩容任务的组成部分。星链系统旨在为全球用户提供低延迟、高速率的宽带互联网服务,该卫星进一步扩充了星链低轨星座的规模,提升星座覆盖与服务能力。

基本信息
目录编号:
56413
目录名称:
STARLINK-6258
国际标识:
2023-061AR
轨道中心:
EARTH
卫星名称:
星链-6258
卫星全名:
星链-6258 (STARLINK-6258 )
卫星状态:
在轨 (已飞行1220 天)
发射日期:
2023-05-04 UTC
国别 :
美国 (US)
星等 :
--
轨道信息
数据来源 国际轨道数据 AOE轨道数据
星历时间 2026-09-04T18:02:17+0800
15小时前
查看轨道信息
2026-08-31T02:00:00+0800
5天前
查看轨道信息
半长轴 6861.203km 6861.192km
偏心率 0.0001549 0.0000063
轨道倾角 43.004° 43.002°
近地点辐角 286.789° 212.490°
升交点赤经 258.110° 284.477°
平近点角 73.279° 5.418°
近地点 482.003km 483.011km
远地点 484.129km 483.099km
周期 94.267分钟 94.267分钟
每日圈数 15.275746 15.275781
详细信息
固有亮度:
5
最大亮度:
2.5
卫星平台:
Starlink v1.5
覆盖范围:
全球
运营商:
太空探索技术公司
运营商所在国:
美国
制造商(研发单位):
太空探索技术公司
制造商所在国:
美国
使用方式:
暂无
卫星简介
星链(Starlink)计划是由太空探索技术公司(SpaceX)提出的一个巨型低轨卫星互联网星座项目,计划在2019年至2024年间在太空搭建由约1.2万颗卫星组成的“星链”网络,其中1584颗将部署在地球上空550千米处的近地轨道,并从2020年开始工作。该卫星仍在工作。
2D轨道图
3D轨道图
轨道高度分析图
轨道倾角分析图
轨道综合分析图
查看轨道综合分析图
交会数据列表
事件ID 空间交会对象 最接近时刻(TCA) 交会距离 交会风险概率(CRP) 交会风险指数(CRI) 操作
CDM_260907-082105-641306-792021
2026-09-07T
08:21:34+0000
0.373 km
远距离
2.115698E-4 高风险 0.82
CDM_260905-114405-290705-641325
2026-09-05T
11:44:55+0000
1.127 km
极远距离
1.099408E-5 中风险 0.56
CDM_260907-064705-641306-792021
2026-09-07T
06:47:25+0000
1.322 km
极远距离
4.919625E-6 低风险 0.49
CDM_260907-095505-641306-792021
2026-09-07T
09:55:43+0000
2.069 km
极远距离
1.362802E-6 低风险 0.38
CDM_260907-051305-641306-792021
2026-09-07T
05:13:15+0000
2.967 km
极远距离
7.45625E-7 极低风险 0.32